Content
SEND FEEDBACK

Daily
Averages
Monthly
Summary
United States of America

DAYTON, WASHINGTON


Home > North America > United States > Washington
Elevation: 1555 feet     Latitude: 46 19N     Longitude: 118 00W

WEATHER
 
SELECT A DAY
Number of Records: 186,720;   Date Range: 1/1/95 - 9/29/14
 
SHARE

PRINT THIS DATA

[ ← Previous Day ]
WEATHER ALMANAC - JANUARY 3, 2013
[ Next Day → ]
[ °C ]   °F
Weather ElementAverageHighLow
Temperature24 °F28 °F (10:53 am)19 °F (6:53 am)
Dewpoint20.5 °F24.8 °F (12:04 pm)15.1 °F (4:53 am)
Humidity86.7 %93 % (12:04 pm)72 % (10:53 am)
Barometer30.42 in30.51 in (12:53 am)30.34 in (3:05 pm)
Wind Speed2.6 mph8.1 mph (1:53 pm)
Weather ElementAverage
Visibility7.5 mi
Wind DirectionESE (104 °)

Weather ElementTotal
Precipitation---
Heating Degree Days41.5 (Base 65)
Averaged from 40 records on January 3, 2013
WEATHER CONDITIONS BREAKOUT
WIND DIRECTION BREAKOUT
WEATHER BY HOUR - JANUARY 3, 2013
[ °C ]   °F
Local TimeTemperatureDewpointHumidityBarometerVisibilityWind DirectionWind SpeedGust SpeedPrecipitationEventsConditions
12:53 AM24.1 °F19.0 °F81 %30.51 in10.0 miSE (140°)3.5 mphClear
1:53 AM21.0 °F17.1 °F85 %30.50 in10.0 miCalmClear
2:53 AM19.9 °F16.0 °F85 %30.50 in10.0 miEast (90°)3.5 mphClear
3:16 AM19.4 °F15.8 °F86 %30.44 in10.0 miESE (110°)3.5 mphPartly Cloudy
3:53 AM19.9 °F16.0 °F85 %30.49 in10.0 miESE (120°)3.5 mphScattered Clouds
4:03 AM21.2 °F15.8 °F80 %30.44 in10.0 miESE (110°)3.5 mphMostly Cloudy
4:32 AM21.2 °F15.8 °F80 %30.44 in10.0 miCalmScattered Clouds
4:53 AM19.9 °F15.1 °F81 %30.49 in10.0 miCalmPartly Cloudy
5:53 AM19.9 °F15.1 °F81 %30.48 in10.0 miESE (110°)4.6 mphClear
6:26 AM19.4 °F15.8 °F86 %30.42 in10.0 miESE (110°)3.5 mphScattered Clouds
6:53 AM19.0 °F15.1 °F85 %30.48 in10.0 miCalmOvercast
7:53 AM19.0 °F15.1 °F85 %30.47 in10.0 miEast (80°)3.5 mphMostly Cloudy
8:15 AM19.4 °F15.8 °F86 %30.40 in10.0 miCalmScattered Clouds
8:53 AM21.9 °F17.1 °F82 %30.46 in10.0 miEast (90°)4.6 mphClear
9:53 AM26.1 °F21.0 °F81 %30.47 in9.0 miCalmClear
10:53 AM28.0 °F19.9 °F72 %30.45 in10.0 miCalmClear
11:53 AM27.0 °F23.0 °F85 %30.43 in9.0 miWest (270°)5.8 mphClear
12:04 PM26.6 °F24.8 °F93 %30.38 in7.0 miWest (260°)5.8 mphScattered Clouds
12:16 PM26.6 °F23.0 °F86 %30.38 in5.0 miWest (280°)5.8 mphMostly Cloudy
12:53 PM26.1 °F23.0 °F88 %30.43 in5.0 miWSW (250°)5.8 mphOvercast
1:10 PM26.6 °F24.8 °F93 %30.36 in4.0 miWest (260°)6.9 mphOvercast
1:53 PM26.1 °F23.0 °F88 %30.42 in5.0 miWSW (250°)8.1 mphOvercast
2:21 PM24.8 °F23.0 °F93 %30.36 in4.0 miWest (270°)5.8 mphOvercast
2:28 PM24.8 °F23.0 °F93 %30.36 in4.0 miWest (260°)3.5 mphOvercast
2:53 PM25.0 °F23.0 °F92 %30.40 in5.0 miCalmOvercast
3:05 PM26.6 °F23.0 °F86 %30.34 in5.0 miCalmOvercast
3:53 PM26.1 °F23.0 °F88 %30.40 in8.0 miCalmOvercast
4:43 PM24.8 °F23.0 °F93 %30.38 in6.0 miWest (270°)5.8 mphOvercast
4:53 PM25.0 °F23.0 °F92 %30.43 in6.0 miWest (260°)4.6 mphOvercast
5:53 PM25.0 °F23.0 °F92 %30.43 in5.0 miCalmOvercast
6:09 PM24.8 °F23.0 °F93 %30.38 in5.0 miWSW (240°)4.6 mphOvercast
6:46 PM24.8 °F23.0 °F93 %30.37 in6.0 miCalmOvercast
6:53 PM25.0 °F23.0 °F92 %30.43 in5.0 miCalmOvercast
7:32 PM26.6 °F23.0 °F86 %30.37 in5.0 miCalmOvercast
7:53 PM26.1 °F24.1 °F92 %30.42 in5.0 miCalmOvercast
8:11 PM26.6 °F23.0 °F86 %30.36 in6.0 miCalmOvercast
8:53 PM25.0 °F23.0 °F92 %30.42 in6.0 miWNW (300°)3.5 mphOvercast
9:53 PM26.1 °F23.0 °F88 %30.44 in6.0 miCalmOvercast
10:53 PM27.0 °F21.9 °F81 %30.43 in9.0 miNNE (30°)3.5 mphOvercast
11:53 PM27.0 °F21.9 °F81 %30.43 in9.0 miCalmOvercast
Hourly data recorded from KALW, located miles away from Dayton, Washington







STORIES FROM OUR PARTNERS